Location: Kimberly
(42.5380°N, 114.3640°W)
Time: 02:30:08
(UTC-06:00)

Envisat - Visible Passes

Search period start: 21 August 2018 00:00
Search period end: 31 August 2018 00:00
Orbit: 764 x 766 km, 98.2° (Epoch: 20 August)

Date Brightness Start Highest point End Pass type
(mag) Time Alt. Az. Time Alt. Az. Time Alt. Az.
21 Aug 3.7 21:01:56 10° S 21:06:55 58° W 21:11:56 10° NNW visible
22 Aug 5.7 22:06:47 10° SW 22:09:40 15° W 22:12:34 10° NW visible
23 Aug 4.7 21:28:02 10° SSW 21:32:35 33° W 21:37:10 10° NNW visible
24 Aug 3.3 20:50:40 10° S 20:55:43 73° WSW 21:00:49 10° NNW visible
25 Aug 5.6 21:54:48 10° SW 21:58:22 19° W 22:01:58 10° NW visible
26 Aug 4.3 21:16:35 10° SSW 21:21:22 41° W 21:26:10 10° NNW visible
27 Aug 3.1 20:39:28 10° SSE 20:44:33 89° ENE 20:49:40 10° NNW visible
27 Aug 6.1 22:23:19 10° W 22:24:15 10° W 22:25:12 10° WNW visible
28 Aug 5.2 21:43:02 10° SSW 21:47:06 24° W 21:51:11 10° NW visible
29 Aug 3.9 21:05:13 10° S 21:10:09 53° W 21:15:07 10° NNW visible
30 Aug 5.8 22:10:24 10° WSW 22:12:56 14° W 22:15:28 10° WNW visible
